Location: Champseau
(45.8333°N, 1.7667°E)
Time: 09:24:39
(UTC+00:00)

ITUPSAT 1 - Pass Details

Date: 01 December 2021
Orbit: 700 x 713 km, 98.6° (Epoch: 27 January)

Event Time Altitude Azimuth Distance (km) Brightness Sun altitude
Rises 05:08:29 0° 114° (ESE) 3,094 ? -21.2°
Reaches altitude 10° 05:11:39 10° 91° (E) 2,183 ? -20.6°
Maximum altitude 05:14:16 15° 58° (ENE) 1,876 ? -20.2°
Drops below altitude 10° 05:16:53 10° 24° (NNE) 2,195 ? -19.7°
Sets 05:20:04 0° 2° (N) 3,122 ? -19.2°
